Regional Weather Roundup
Issued by NWS Goodland, KS

Home | Current Version | Previous Version | Graphics & Text | Print | Product List | Glossary On
Versions: 1 2 3 4 5 6 7 8 9 10 11 12 13 14 15 16 17 18 19 20 21 22 23 24 25 26 27 28 29 30 31 32 33 34 35 36 37 38 39 40 41 42 43 44 45 46 47 48 49 50
000
ASUS43 KGLD 270308
RWRGLD

GOODLAND FORECAST AREA HOURLY WEATHER ROUNDUP
NATIONAL WEATHER SERVICE GOODLAND KS
800 PM MST FRI DEC 26 2014

...OFFICIAL OBSERVATIONS...

CITY           SKY/WX    TMP DP  RH WIND       PRES   REMARKS
GOODLAND KS    FLURRIES  18  16  92 NW8       30.09R
HILL CITY KS   LGT SNOW  24  19  81 N15       30.12R WCI  11
IMPERIAL NEB   LGT SNOW  19  15  84 N8        30.11R FOG
MCCOOK NEB     LGT SNOW  21  18  88 N15       30.13R VSB 1   WCI   8
AKRON CO       CLOUDY    12  10  92 NW7       30.06R FOG
BURLINGTON CO  CLOUDY    13  10  88 NW7       30.08R FOG
LIMON CO       MOCLDY     7   5  91 NW7       30.04R
$$

...UNOFFICIAL OBSERVATIONS...

CITY           SKY/WX    TMP DP  RH WIND       PRES   REMARKS
COLBY KS       LGT SNOW  21  21 100 NW7       30.11R
NORTON KS      LGT SNOW  23  19  86 NW6       30.11R
SHARON SPRINGS   N/A     17  15  91 N8          N/A
TRIBUNE KS     CLOUDY    21  21 100 NW6       30.12R
KIT CARSON CO    N/A     15  12  86 MISG        N/A
$$



USA.gov is the U.S. government's official web portal to all federal, state and local government web resources and services.